Terminal Aerodrome Forecast
Issued by NWS

Home | Current Version | Previous Version | Text Only | Print | Product List | Glossary On
Versions: 1 2 3 4 5 6 7 8 9 10 11 12 13
000
FTUS42 KTAE 262321
TAFABY
TAF
KABY 262321Z 2700/2724 00000KT P6SM VCSH SCT070 BKN110
     FM270200 00000KT P6SM SCT250
     FM271500 24008KT P6SM FEW050 SCT250=

USA.gov is the U.S. government's official web portal to all federal, state and local government web resources and services.